Regional Weather Roundup
Issued by NWS

Home | Current Version | Previous Version | Text Only | Print | Product List | Glossary Off
Versions: 1 2 3 4 5 6 7 8 9 10 11 12 13 14 15 16 17 18 19 20 21 22 23 24 25 26 27 28 29 30 31 32 33 34 35 36 37 38 39 40 41 42 43 44 45 46 47 48 49 50

000
ASUS44 KMEG 050010
RWRTN
TENNESSEE HOURLY STATE WEATHER ROUNDUP
NATIONAL WEATHER SERVICE MEMPHIS TN
700 PM CDT TUE AUG 04 2015

TNZ002-004-019-021-049-052-054-088>092-050100-
WEST TENNESSEE

CITY           SKY/WX    TMP DP  RH WIND       PRES   REMARKS
MEMPHIS INTL   MOSUNNY   92  69  47 SW5       29.93S HX  97
NWS MEMPHIS      N/A     89 N/A N/A MISG        N/A
JACKSON        MOSUNNY   91  71  51 CALM      29.95R HX  97
DYERSBURG        N/A    N/A N/A N/A MISG        N/A
UNION CITY     SUNNY     90  75  62 CALM      29.94R HX 100
PARIS          CLEAR     84  75  74 CALM      29.97R HX  92
LEXINGTON      CLEAR     86  75  70 CALM      29.96R HX  95
$$

TNZ008-025-027-028-033-062-065-066-050100-
NORTH MIDDLE TENNESSEE

CITY           SKY/WX    TMP DP  RH WIND       PRES   REMARKS
NASHVILLE      MOCLDY    91  63  39 NW6       29.98R HX  92
CLARKSVILLE    MOCLDY    87  71  58 NW7       29.96R HX  93
SMYRNA         MOCLDY    91  69  48 W6        29.98R HX  95
COOKEVILLE     CLEAR     88  77  70 CALM      30.00R HX 100
CROSSVILLE     MOCLDY    81  69  67 CALM      30.07R
$$

TNZ061-075-076-078-094-096-097-050100-
SOUTH MIDDLE TENNESSEE

CITY           SKY/WX    TMP DP  RH WIND       PRES   REMARKS
FAYETTEVILLE     N/A     88  66  48 CALM      29.99R HX  90
TULLAHOMA      CLEAR     90  66  45 CALM      30.01R HX  92
WINCHESTER     CLEAR     88  72  58 NE6       29.99R HX  94
MCMINNVILLE    CLEAR     88  75  66 CALM      30.00R HX  97
COLUMBIA       CLEAR     90  73  58 NW3       29.97R HX  98
SHELBYVILLE    PTCLDY    84  75  74 CALM      29.99R HX  92
$$

TNZ017-018-042-046-047-050100-
NORTHEAST TENNESSEE

CITY           SKY/WX    TMP DP  RH WIND       PRES   REMARKS
TRI CITIES     CLOUDY    70  67  90 NE3       30.05F
ELIZABETHTON   LGT RAIN  68  64  88 E6        30.08R
$$

TNZ012-013-036-069-073-074-050100-
CENTRAL EAST TENNESSEE

CITY           SKY/WX    TMP DP  RH WIND       PRES   REMARKS
KNOXVILLE      MOCLDY    89  67  47 SW6       29.99R HX  92
OAK RIDGE      PTCLDY    91  69  48 CALM      30.01R HX  96
GATLINBURG       N/A     90  64  43 CALM      30.00R HX  91
MORRISTOWN     PTCLDY    82  68  61 E8        30.04R
$$

TNZ083-085-099-050100-
SOUTHEAST TENNESSEE

CITY           SKY/WX    TMP DP  RH WIND       PRES   REMARKS
CHATTANOOGA    MOCLDY    92  68  45 NW3       29.97R HX  96
$$

SKY/WX REPORTED AS FAIR MEANS FEW OR NO CLOUDS BELOW
12 THOUSAND FEET.



USA.gov is the U.S. government's official web portal to all federal, state and local government web resources and services.